ASA9 KDCA-KPDX

Flight info

Callsign ASA9
Flight time 5h 12m
Altitude 32000
Route HORTO4 BUFFR Q178 DJB J34 BAE/N0468F340 J34 BIL/N0463F360 J16 PDT JKNOX HHOOD6
Aircraft B738/M-SDE2E3FGHIRWXY/LB1

Departure

Time 2026-04-30 12:42
Airport Ronald Reagan Washington National Airport (KDCA)

Arrival

Time 2026-04-30 17:54
Airport Portland International Airport (KPDX)
Time Latitude Longitude Altitude Speed Heading
2026-04-30 12:14 38.85389 -77.04070 23 ft 0 kts 302°
2026-04-30 12:35 38.85383 -77.04058 25 ft 4 kts 302°
2026-04-30 12:35 38.85363 -77.04043 23 ft 4 kts 359°
2026-04-30 12:35 38.85340 -77.04056 27 ft 3 kts 23°
2026-04-30 12:35 38.85325 -77.04071 27 ft 4 kts 72°
2026-04-30 12:36 38.85321 -77.04085 26 ft 0 kts 72°
2026-04-30 12:38 38.85336 -77.04028 23 ft 11 kts 73°
2026-04-30 12:38 38.85315 -77.03940 24 ft 11 kts 146°
2026-04-30 12:39 38.85227 -77.03924 24 ft 16 kts 176°
2026-04-30 12:39 38.85093 -77.03911 25 ft 22 kts 175°
2026-04-30 12:39 38.84935 -77.03895 23 ft 24 kts 175°
2026-04-30 12:39 38.84768 -77.03879 25 ft 25 kts 176°
2026-04-30 12:40 38.84601 -77.03861 27 ft 23 kts 175°
2026-04-30 12:40 38.84441 -77.03846 27 ft 22 kts 176°
2026-04-30 12:40 38.84310 -77.03833 26 ft 8 kts 176°
2026-04-30 12:40 38.84298 -77.03832 24 ft 6 kts 176°
2026-04-30 12:41 38.84224 -77.03789 23 ft 14 kts 128°
2026-04-30 12:41 38.84182 -77.03698 26 ft 8 kts 93°
2026-04-30 12:41 38.84195 -77.03680 26 ft 4 kts
2026-04-30 12:41 38.84303 -77.03690 23 ft 47 kts 355°
2026-04-30 12:42 38.84885 -77.03749 26 ft 119 kts 355°
2026-04-30 12:42 38.85924 -77.03864 63 ft 175 kts 355°
2026-04-30 12:42 38.87103 -77.04084 951 ft 169 kts 334°
2026-04-30 12:42 38.88038 -77.04979 1885 ft 167 kts 319°
2026-04-30 12:43 38.88984 -77.06058 2203 ft 195 kts 317°
2026-04-30 12:43 38.90018 -77.07253 2620 ft 204 kts 317°
2026-04-30 12:43 38.90837 -77.08809 2968 ft 216 kts 298°
2026-04-30 12:43 38.91561 -77.10537 3460 ft 220 kts 309°
2026-04-30 12:44 38.92778 -77.11806 3775 ft 234 kts 330°
2026-04-30 12:44 38.94229 -77.12825 4329 ft 243 kts 329°
2026-04-30 12:44 38.95684 -77.13936 5109 ft 243 kts 322°
2026-04-30 12:44 38.96743 -77.15628 5753 ft 248 kts 293°
2026-04-30 12:45 38.97243 -77.17765 6460 ft 252 kts 283°
2026-04-30 12:45 38.97575 -77.19997 7207 ft 255 kts 281°
2026-04-30 12:45 38.97896 -77.22247 7916 ft 258 kts 281°
2026-04-30 12:45 38.98232 -77.24511 8585 ft 261 kts 281°
2026-04-30 12:46 38.98586 -77.26833 9273 ft 264 kts 281°
2026-04-30 12:46 38.98943 -77.29150 9998 ft 265 kts 281°
2026-04-30 12:46 38.99430 -77.31421 10773 ft 265 kts 295°
2026-04-30 12:46 39.00554 -77.33390 11127 ft 286 kts 310°
2026-04-30 12:47 39.02076 -77.35202 11307 ft 308 kts 314°
2026-04-30 12:47 39.03724 -77.37070 11451 ft 329 kts 314°
2026-04-30 12:47 39.05499 -77.39085 11607 ft 347 kts 314°
2026-04-30 12:47 39.07326 -77.41180 11751 ft 365 kts 313°
2026-04-30 12:48 39.09267 -77.43429 12035 ft 376 kts 313°
2026-04-30 12:48 39.11252 -77.45651 12559 ft 382 kts 319°
2026-04-30 12:48 39.13618 -77.47213 13112 ft 396 kts 336°
2026-04-30 12:48 39.16280 -77.48221 13658 ft 401 kts 338°
2026-04-30 12:49 39.19005 -77.49249 14151 ft 405 kts 337°
2026-04-30 12:49 39.21716 -77.50287 14660 ft 408 kts 337°
2026-04-30 12:49 39.24445 -77.51345 15182 ft 411 kts 337°
2026-04-30 12:49 39.27163 -77.52408 15657 ft 415 kts 336°
2026-04-30 12:50 39.29972 -77.53512 16150 ft 418 kts 336°
2026-04-30 12:50 39.32726 -77.54597 16588 ft 422 kts 336°
2026-04-30 12:50 39.35546 -77.55710 17050 ft 425 kts 336°
2026-04-30 12:50 39.38379 -77.56828 17521 ft 427 kts 336°
2026-04-30 12:51 39.41234 -77.57956 17941 ft 430 kts 335°
2026-04-30 12:51 39.43950 -77.59477 18275 ft 420 kts 317°
2026-04-30 12:51 39.45980 -77.61978 18764 ft 406 kts 303°
2026-04-30 12:51 39.47569 -77.65003 19194 ft 400 kts 291°
2026-04-30 12:52 39.48661 -77.68338 19574 ft 399 kts 286°
2026-04-30 12:52 39.49611 -77.71713 19954 ft 401 kts 285°
2026-04-30 12:52 39.50559 -77.75124 20322 ft 403 kts 285°
2026-04-30 12:52 39.51544 -77.78545 20682 ft 406 kts 286°
2026-04-30 12:53 39.52557 -77.81962 21080 ft 408 kts 286°
2026-04-30 12:53 39.53584 -77.85393 21413 ft 410 kts 286°
2026-04-30 12:53 39.54630 -77.88847 21760 ft 413 kts 287°
2026-04-30 12:53 39.55693 -77.92313 22093 ft 415 kts 287°
2026-04-30 12:54 39.56767 -77.95799 22425 ft 417 kts 287°
2026-04-30 12:54 39.57844 -77.99296 22718 ft 420 kts 287°
2026-04-30 12:54 39.58930 -78.02828 23026 ft 421 kts 287°
2026-04-30 12:54 39.60011 -78.06350 23421 ft 421 kts 287°
2026-04-30 12:55 39.61096 -78.09898 23694 ft 423 kts 287°
2026-04-30 12:55 39.62181 -78.13453 23982 ft 425 kts 287°
2026-04-30 12:55 39.63269 -78.17024 24251 ft 427 kts 287°
2026-04-30 12:55 39.64361 -78.20614 24517 ft 429 kts 286°
2026-04-30 12:56 39.65458 -78.24223 24811 ft 430 kts 286°
2026-04-30 12:56 39.66555 -78.27837 25094 ft 431 kts 286°
2026-04-30 12:56 39.67639 -78.31409 25406 ft 431 kts 286°
2026-04-30 12:56 39.68733 -78.35023 25782 ft 430 kts 286°
2026-04-30 12:57 39.69822 -78.38619 26250 ft 426 kts 286°
2026-04-30 12:57 39.70905 -78.42207 26564 ft 426 kts 286°
2026-04-30 12:57 39.71980 -78.45773 26916 ft 425 kts 286°
2026-04-30 12:57 39.73051 -78.49329 27278 ft 423 kts 286°
2026-04-30 12:58 39.74123 -78.52896 27636 ft 421 kts 286°
2026-04-30 12:58 39.75183 -78.56428 28025 ft 419 kts 286°
2026-04-30 12:58 39.76238 -78.59943 28457 ft 416 kts 286°
2026-04-30 12:58 39.77284 -78.63436 28822 ft 414 kts 286°
2026-04-30 12:59 39.78329 -78.66930 29179 ft 413 kts 285°
2026-04-30 12:59 39.79367 -78.70410 29509 ft 412 kts 285°
2026-04-30 12:59 39.80400 -78.73874 29809 ft 412 kts 285°
2026-04-30 12:59 39.81432 -78.77341 30126 ft 410 kts 285°
2026-04-30 13:00 39.82463 -78.80806 30440 ft 409 kts 285°
2026-04-30 13:00 39.83474 -78.84208 30711 ft 409 kts 285°
2026-04-30 13:00 39.84502 -78.87673 31015 ft 408 kts 285°
2026-04-30 13:00 39.85516 -78.91094 31309 ft 407 kts 285°
2026-04-30 13:01 39.86533 -78.94531 31533 ft 407 kts 285°
2026-04-30 13:01 39.87551 -78.97976 31793 ft 407 kts 285°
2026-04-30 13:01 39.88567 -79.01421 31899 ft 409 kts 285°
2026-04-30 13:01 39.89586 -79.04882 31906 ft 409 kts 285°
2026-04-30 13:02 39.91621 -79.11795 31908 ft 407 kts 285°
2026-04-30 13:02 39.93638 -79.18665 31905 ft 406 kts 285°
2026-04-30 13:03 39.95651 -79.25543 31908 ft 406 kts 285°
2026-04-30 13:03 39.97661 -79.32431 31913 ft 406 kts 286°
2026-04-30 13:04 39.99676 -79.39333 31922 ft 409 kts 287°
2026-04-30 13:04 40.02482 -79.45888 31953 ft 419 kts 298°
2026-04-30 13:05 40.05790 -79.52209 31950 ft 423 kts 298°
2026-04-30 13:06 40.10760 -79.61831 31933 ft 429 kts 298°
2026-04-30 13:06 40.14085 -79.68317 31938 ft 430 kts 298°
2026-04-30 13:07 40.17396 -79.74792 31937 ft 430 kts 298°
2026-04-30 13:07 40.20719 -79.81308 31928 ft 429 kts 298°
2026-04-30 13:08 40.24022 -79.87792 31921 ft 428 kts 298°
2026-04-30 13:08 40.27315 -79.94276 31913 ft 427 kts 298°
2026-04-30 13:09 40.30577 -80.00710 31919 ft 426 kts 298°
2026-04-30 13:09 40.33853 -80.07185 31912 ft 426 kts 298°
2026-04-30 13:10 40.36572 -80.12584 31915 ft 425 kts 298°
2026-04-30 13:10 40.39838 -80.19090 31923 ft 424 kts 298°
2026-04-30 13:11 40.43050 -80.25499 31921 ft 423 kts 298°
2026-04-30 13:11 40.46292 -80.31976 31931 ft 423 kts 298°
2026-04-30 13:12 40.49520 -80.38440 31924 ft 423 kts 298°
2026-04-30 13:12 40.52752 -80.44922 31928 ft 423 kts 298°
2026-04-30 13:13 40.57583 -80.54632 31926 ft 423 kts 298°
2026-04-30 13:14 40.62401 -80.64361 31948 ft 424 kts 298°
2026-04-30 13:14 40.67223 -80.74143 31948 ft 424 kts 298°
2026-04-30 13:15 40.72036 -80.83894 31951 ft 425 kts 298°
2026-04-30 13:16 40.75258 -80.90433 31962 ft 425 kts 298°
2026-04-30 13:16 40.78475 -80.96979 31963 ft 425 kts 298°
2026-04-30 13:17 40.83291 -81.06806 31973 ft 425 kts 298°
2026-04-30 13:18 40.88097 -81.16643 31976 ft 424 kts 298°
2026-04-30 13:18 40.92879 -81.26481 31982 ft 423 kts 298°
2026-04-30 13:19 40.96058 -81.33042 31984 ft 423 kts 298°
2026-04-30 13:19 40.99139 -81.39412 31983 ft 422 kts 298°
2026-04-30 13:20 41.02302 -81.45966 31983 ft 422 kts 298°
2026-04-30 13:20 41.05465 -81.52531 31991 ft 423 kts 298°
2026-04-30 13:21 41.08624 -81.59104 31979 ft 423 kts 298°
2026-04-30 13:22 41.13364 -81.68985 31983 ft 423 kts 298°
2026-04-30 13:22 41.18093 -81.78875 31998 ft 423 kts 298°
2026-04-30 13:23 41.22826 -81.88806 31988 ft 424 kts 298°
2026-04-30 13:24 41.29120 -82.02060 32002 ft 424 kts 298°
2026-04-30 13:25 41.35385 -82.15315 32016 ft 423 kts 298°
2026-04-30 13:26 41.43989 -82.31270 32019 ft 424 kts 301°
2026-04-30 13:28 41.52603 -82.47171 32017 ft 424 kts 301°
2026-04-30 13:28 41.57757 -82.56754 32018 ft 424 kts 301°
2026-04-30 13:29 41.64625 -82.69575 32018 ft 424 kts 301°
2026-04-30 13:31 41.73179 -82.85625 32019 ft 423 kts 301°
2026-04-30 13:32 41.81664 -83.01654 32023 ft 422 kts 301°
2026-04-30 13:33 41.88440 -83.14514 32029 ft 422 kts 301°
2026-04-30 13:34 41.93498 -83.24151 32036 ft 421 kts 301°
2026-04-30 13:35 42.00240 -83.37045 32038 ft 421 kts 301°
2026-04-30 13:36 42.06589 -83.50227 32047 ft 418 kts 293°
2026-04-30 13:36 42.10456 -83.60776 32040 ft 419 kts 293°
2026-04-30 13:37 42.14358 -83.71350 32034 ft 420 kts 293°
2026-04-30 13:38 42.18288 -83.81927 32027 ft 421 kts 293°
2026-04-30 13:39 42.23498 -83.96003 32028 ft 420 kts 293°
2026-04-30 13:40 42.27398 -84.06587 32038 ft 419 kts 293°
2026-04-30 13:40 42.29992 -84.13653 32033 ft 419 kts 293°
2026-04-30 13:41 42.32574 -84.20699 32037 ft 419 kts 293°
2026-04-30 13:41 42.35150 -84.27748 32037 ft 418 kts 293°
2026-04-30 13:42 42.37725 -84.34812 32042 ft 418 kts 293°
2026-04-30 13:42 42.41570 -84.45393 32047 ft 418 kts 293°
2026-04-30 13:43 42.44128 -84.52451 32045 ft 417 kts 292°
2026-04-30 13:43 42.46679 -84.59512 32043 ft 418 kts 292°
2026-04-30 13:44 42.49228 -84.66587 32050 ft 418 kts 292°
2026-04-30 13:44 42.51762 -84.73640 32043 ft 418 kts 293°
2026-04-30 13:45 42.55597 -84.84341 32048 ft 419 kts 292°
2026-04-30 13:46 42.58119 -84.91405 32051 ft 419 kts 292°
2026-04-30 13:46 42.60660 -84.98537 32042 ft 420 kts 292°
2026-04-30 13:47 42.63195 -85.05671 32055 ft 419 kts 292°
2026-04-30 13:47 42.65735 -85.12837 32299 ft 422 kts 292°
2026-04-30 13:47 42.67007 -85.16431 32639 ft 419 kts 292°
2026-04-30 13:48 42.68266 -85.19992 32915 ft 418 kts 292°
2026-04-30 13:48 42.69528 -85.23569 33114 ft 419 kts 292°
2026-04-30 13:48 42.70786 -85.27140 33376 ft 418 kts 292°
2026-04-30 13:48 42.72038 -85.30693 33619 ft 418 kts 292°
2026-04-30 13:49 42.73294 -85.34266 33801 ft 418 kts 292°
2026-04-30 13:49 42.74547 -85.37835 34010 ft 417 kts 292°
2026-04-30 13:49 42.75798 -85.41402 34051 ft 420 kts 292°
2026-04-30 13:50 42.78252 -85.48619 34056 ft 418 kts 288°
2026-04-30 13:50 42.80084 -85.60078 34061 ft 412 kts 278°
2026-04-30 13:51 42.81049 -85.67752 34066 ft 411 kts 278°
2026-04-30 13:51 42.82031 -85.75422 34066 ft 411 kts 278°
2026-04-30 13:52 42.83013 -85.83084 34072 ft 411 kts 278°
2026-04-30 13:52 42.83992 -85.90763 34076 ft 411 kts 278°
2026-04-30 13:53 42.84968 -85.98458 34075 ft 413 kts 278°
2026-04-30 13:53 42.85776 -86.04868 34075 ft 413 kts 278°
2026-04-30 13:54 42.86913 -86.13900 34073 ft 414 kts 278°
2026-04-30 13:54 42.87880 -86.21637 34073 ft 414 kts 278°
2026-04-30 13:55 42.88679 -86.28070 34073 ft 414 kts 278°
2026-04-30 13:55 42.89635 -86.35796 34070 ft 414 kts 278°
2026-04-30 13:56 42.90742 -86.44796 34083 ft 413 kts 278°
2026-04-30 13:56 42.91534 -86.51275 34087 ft 413 kts 278°
2026-04-30 13:57 42.92476 -86.59020 34080 ft 413 kts 278°
2026-04-30 13:57 42.93404 -86.66698 34084 ft 413 kts 278°
2026-04-30 13:58 42.94799 -86.78314 34084 ft 413 kts 278°
2026-04-30 13:59 42.95719 -86.86045 34085 ft 413 kts 278°
2026-04-30 13:59 42.96636 -86.93787 34091 ft 413 kts 278°
2026-04-30 14:00 42.97546 -87.01520 34092 ft 413 kts 278°
2026-04-30 14:00 42.98903 -87.13127 34101 ft 412 kts 278°
2026-04-30 14:01 42.99798 -87.20859 34101 ft 412 kts 278°
2026-04-30 14:01 43.00689 -87.28591 34098 ft 412 kts 278°
2026-04-30 14:02 43.01575 -87.36327 34101 ft 412 kts 278°
2026-04-30 14:02 43.02456 -87.44066 34107 ft 412 kts 278°
2026-04-30 14:03 43.03329 -87.51789 34111 ft 411 kts 278°
2026-04-30 14:03 43.04198 -87.59519 34102 ft 412 kts 278°
2026-04-30 14:04 43.05062 -87.67257 34102 ft 411 kts 278°
2026-04-30 14:04 43.05921 -87.74990 34100 ft 412 kts 278°
2026-04-30 14:05 43.06774 -87.82725 34103 ft 411 kts 278°
2026-04-30 14:05 43.07620 -87.90447 34103 ft 411 kts 278°
2026-04-30 14:06 43.08884 -88.02079 34115 ft 411 kts 278°
2026-04-30 14:07 43.10128 -88.13640 34117 ft 411 kts 278°
2026-04-30 14:08 43.11368 -88.25241 34104 ft 411 kts 278°
2026-04-30 14:08 43.14042 -88.36346 34100 ft 412 kts 291°
2026-04-30 14:09 43.16256 -88.43597 34103 ft 412 kts 290°
2026-04-30 14:10 43.19530 -88.54470 34103 ft 412 kts 290°
2026-04-30 14:10 43.21695 -88.61729 34100 ft 412 kts 290°
2026-04-30 14:11 43.23856 -88.68992 34111 ft 411 kts 290°
2026-04-30 14:11 43.26014 -88.76272 34109 ft 411 kts 290°
2026-04-30 14:12 43.28168 -88.83548 34110 ft 411 kts 290°
2026-04-30 14:12 43.30318 -88.90835 34115 ft 411 kts 290°
2026-04-30 14:13 43.32457 -88.98107 34112 ft 411 kts 290°
2026-04-30 14:13 43.34595 -89.05399 34108 ft 411 kts 290°
2026-04-30 14:14 43.36729 -89.12694 34099 ft 412 kts 290°
2026-04-30 14:14 43.38856 -89.19987 34105 ft 412 kts 290°
2026-04-30 14:15 43.40985 -89.27306 34101 ft 412 kts 290°
2026-04-30 14:15 43.43091 -89.34571 34102 ft 412 kts 290°
2026-04-30 14:16 43.45210 -89.41900 34096 ft 412 kts 290°
2026-04-30 14:16 43.47324 -89.49234 34096 ft 412 kts 290°
2026-04-30 14:17 43.49435 -89.56577 34092 ft 412 kts 290°
2026-04-30 14:17 43.51542 -89.63934 34092 ft 413 kts 290°
2026-04-30 14:18 43.53648 -89.71299 34097 ft 413 kts 290°
2026-04-30 14:18 43.56514 -89.82493 34102 ft 413 kts 286°
2026-04-30 14:19 43.58968 -89.93882 34092 ft 413 kts 285°
2026-04-30 14:20 43.60621 -90.01474 34089 ft 413 kts 286°
2026-04-30 14:20 43.63112 -90.12889 34087 ft 415 kts 286°
2026-04-30 14:21 43.64772 -90.20518 34091 ft 415 kts 285°
2026-04-30 14:22 43.67228 -90.31915 34083 ft 414 kts 285°
2026-04-30 14:22 43.69676 -90.43366 34074 ft 414 kts 285°
2026-04-30 14:23 43.72918 -90.58619 34077 ft 413 kts 285°
2026-04-30 14:24 43.75331 -90.70040 34072 ft 412 kts 285°
2026-04-30 14:25 43.78515 -90.85208 34070 ft 411 kts 285°
2026-04-30 14:26 43.80894 -90.96615 34074 ft 411 kts 285°
2026-04-30 14:27 43.83255 -91.08007 34084 ft 411 kts 285°
2026-04-30 14:27 43.84828 -91.15625 34086 ft 411 kts 285°
2026-04-30 14:28 43.87175 -91.27053 34087 ft 411 kts 285°
2026-04-30 14:28 43.88733 -91.34672 34089 ft 411 kts 285°
2026-04-30 14:29 43.91565 -91.48671 34087 ft 412 kts 284°
2026-04-30 14:31 43.95013 -91.69407 34105 ft 414 kts 283°
2026-04-30 14:31 43.96948 -91.81120 34098 ft 415 kts 283°
2026-04-30 14:32 43.98885 -91.92850 34103 ft 416 kts 283°
2026-04-30 14:33 44.00175 -92.00691 34102 ft 417 kts 283°
2026-04-30 14:33 44.02103 -92.12468 34099 ft 417 kts 283°
2026-04-30 14:34 44.03378 -92.20329 34103 ft 417 kts 283°
2026-04-30 14:34 44.04645 -92.28173 34115 ft 416 kts 283°
2026-04-30 14:35 44.06538 -92.39951 34118 ft 416 kts 283°
2026-04-30 14:36 44.07793 -92.47816 34122 ft 417 kts 282°
2026-04-30 14:36 44.09046 -92.55684 34112 ft 417 kts 282°
2026-04-30 14:37 44.10295 -92.63572 34113 ft 417 kts 282°
2026-04-30 14:37 44.11537 -92.71452 34111 ft 417 kts 282°
2026-04-30 14:38 44.12772 -92.79330 34110 ft 417 kts 282°
2026-04-30 14:38 44.14003 -92.87221 34106 ft 417 kts 282°
2026-04-30 14:39 44.15226 -92.95098 34111 ft 416 kts 282°
2026-04-30 14:39 44.16443 -93.02977 34110 ft 416 kts 282°
2026-04-30 14:40 44.18261 -93.14808 34120 ft 416 kts 282°
2026-04-30 14:40 44.19465 -93.22699 34119 ft 416 kts 282°
2026-04-30 14:41 44.20459 -93.29246 34127 ft 416 kts 282°
2026-04-30 14:41 44.21843 -93.38397 34127 ft 415 kts 282°
2026-04-30 14:42 44.23027 -93.46267 34138 ft 414 kts 282°
2026-04-30 14:42 44.24205 -93.54133 34138 ft 414 kts 282°
2026-04-30 14:43 44.25185 -93.60717 34140 ft 414 kts 281°
2026-04-30 14:43 44.26343 -93.68524 34152 ft 413 kts 281°
2026-04-30 14:44 44.27509 -93.76427 34144 ft 413 kts 281°
2026-04-30 14:44 44.28664 -93.84286 34157 ft 413 kts 281°
2026-04-30 14:45 44.29808 -93.92125 34155 ft 412 kts 281°
2026-04-30 14:45 44.30941 -93.99921 34157 ft 412 kts 281°
2026-04-30 14:46 44.32075 -94.07771 34158 ft 412 kts 281°
2026-04-30 14:46 44.33195 -94.15554 34155 ft 413 kts 281°
2026-04-30 14:47 44.34317 -94.23395 34162 ft 412 kts 281°
2026-04-30 14:47 44.35437 -94.31269 34200 ft 416 kts 281°
2026-04-30 14:48 44.36000 -94.35234 34365 ft 416 kts 281°
2026-04-30 14:48 44.36559 -94.39194 34625 ft 414 kts 281°
2026-04-30 14:48 44.37115 -94.43143 34874 ft 414 kts 281°
2026-04-30 14:48 44.37669 -94.47082 35041 ft 414 kts 281°
2026-04-30 14:49 44.38227 -94.51051 35160 ft 416 kts 281°
2026-04-30 14:49 44.38783 -94.55025 35333 ft 416 kts 281°
2026-04-30 14:49 44.39337 -94.58991 35562 ft 415 kts 281°
2026-04-30 14:49 44.39888 -94.62949 35772 ft 415 kts 281°
2026-04-30 14:50 44.40984 -94.70856 36169 ft 414 kts 281°
2026-04-30 14:50 44.41530 -94.74813 36256 ft 414 kts 281°
2026-04-30 14:51 44.43165 -94.86720 36273 ft 418 kts 281°
2026-04-30 14:52 44.44798 -94.98708 36276 ft 419 kts 281°
2026-04-30 14:52 44.46426 -95.10751 36278 ft 419 kts 281°
2026-04-30 14:53 44.47949 -95.22801 36275 ft 419 kts 279°
2026-04-30 14:54 44.49870 -95.38877 36276 ft 417 kts 279°
2026-04-30 14:55 44.51305 -95.50882 36284 ft 416 kts 279°
2026-04-30 14:56 44.53195 -95.66834 36294 ft 414 kts 279°
2026-04-30 14:57 44.54597 -95.78792 36292 ft 414 kts 279°
2026-04-30 14:58 44.56437 -95.94662 36296 ft 413 kts 279°
2026-04-30 14:58 44.57803 -96.06595 36303 ft 414 kts 279°
2026-04-30 15:00 44.60061 -96.26542 36315 ft 415 kts 279°
2026-04-30 15:01 44.61848 -96.42557 36311 ft 416 kts 279°
2026-04-30 15:01 44.63176 -96.54610 36298 ft 417 kts 279°
2026-04-30 15:02 44.64058 -96.62671 36301 ft 418 kts 279°
2026-04-30 15:03 44.66038 -96.80997 36295 ft 420 kts 279°
2026-04-30 15:04 44.68197 -97.01288 36295 ft 420 kts 279°
2026-04-30 15:06 44.70322 -97.21618 36284 ft 421 kts 278°
2026-04-30 15:07 44.71993 -97.37871 36286 ft 420 kts 278°
2026-04-30 15:08 44.73635 -97.54076 36297 ft 420 kts 278°
2026-04-30 15:09 44.75667 -97.74437 36300 ft 421 kts 278°
2026-04-30 15:10 44.77268 -97.90777 36314 ft 422 kts 278°
2026-04-30 15:11 44.79631 -98.15357 36308 ft 423 kts 278°
2026-04-30 15:13 44.81564 -98.35880 36318 ft 423 kts 278°
2026-04-30 15:14 44.84210 -98.64669 36316 ft 425 kts 278°
2026-04-30 15:17 44.87524 -99.01931 36325 ft 426 kts 278°
2026-04-30 15:19 44.90380 -99.35212 36328 ft 428 kts 278°
2026-04-30 17:39 45.52798 -121.31669 15074 ft 316 kts 272°
2026-04-30 17:41 45.52923 -121.57285 12600 ft 328 kts 271°
2026-04-30 17:42 45.52938 -121.63785 11789 ft 328 kts 270°
2026-04-30 17:42 45.52992 -121.73522 10542 ft 322 kts 273°
2026-04-30 17:43 45.53267 -121.79707 9980 ft 298 kts 274°
2026-04-30 17:44 45.53535 -121.85660 9339 ft 286 kts 274°
2026-04-30 17:44 45.53758 -121.91030 8560 ft 280 kts 273°
2026-04-30 17:46 45.53875 -122.04723 6662 ft 273 kts 242°
2026-04-30 17:47 45.49925 -122.12792 6048 ft 228 kts 232°
2026-04-30 17:48 45.47242 -122.20724 5381 ft 229 kts 270°
2026-04-30 17:48 45.47202 -122.27270 4569 ft 207 kts 270°
2026-04-30 17:49 45.48363 -122.34811 3730 ft 199 kts 295°
2026-04-30 17:50 45.50957 -122.41602 2687 ft 189 kts 301°
2026-04-30 17:51 45.52637 -122.45687 2061 ft 172 kts 301°
2026-04-30 17:52 45.54436 -122.50019 1376 ft 160 kts 302°
2026-04-30 17:53 45.57186 -122.56170 519 ft 144 kts 298°
2026-04-30 17:54 45.58739 -122.60135 28 ft 23 kts 317°
2026-04-30 17:55 45.58912 -122.60056 27 ft 10 kts 120°
2026-04-30 17:56 45.58935 -122.59905 27 ft 2 kts 41°
2026-04-30 17:57 45.58937 -122.59902 28 ft 0 kts 41°